Location: *
(49.0044°N, 9.5056°E)
Time: 12:22:55
(UTC+00:00)

YAOGAN 6 - Pass Details

Date: 22 September 2019
Orbit: 466 x 505 km, 97.0° (Epoch: 15 October)

Event Time Altitude Azimuth Distance (km) Brightness Sun altitude
Rises 18:07:36 0° 185° (S) 2,578 6.2 -8.5°
Reaches altitude 10° 18:09:46 10° 193° (SSW) 1,705 5.4 -8.8°
Maximum altitude 18:13:13 38° 263° (W) 786 4.3 -9.4°
Drops below altitude 10° 18:16:43 10° 333° (NNW) 1,729 5.9 -9.9°
Sets 18:18:56 0° 341° (NNW) 2,620 6.7 -10.3°
